Location: Jackson Park
(37.2862°N, 79.9123°W)
Time: 21:25:13
(UTC+00:00)

Transit 4A - Pass Details

Date: 18 May 2026
Orbit: 860 x 980 km, 66.8° (Epoch: 9 June)

Event Time Altitude Azimuth Distance (km) Brightness Sun altitude
Rises 19:48:08 0° 344° (NNW) 3,686 11.0 52.6°
Reaches altitude 10° 19:51:51 10° 5° (N) 2,738 10.3 51.9°
Maximum altitude 19:55:44 16° 43° (NE) 2,295 9.8 51.2°
Drops below altitude 10° 19:59:36 10° 81° (E) 2,720 10.1 50.4°
Sets 20:03:15 0° 101° (ESE) 3,650 10.6 49.7°
